Location: Montbazon
(47.2835°N, 0.6999°E)
Time: 17:13:54
(UTC+00:00)

USA 267 - Pass Details

Date: 08 November 2025
Orbit: 1100 x 1108 km, 123.0° (Epoch: 21 November)

Event Time Altitude Azimuth Distance (km) Brightness Sun altitude
Rises 03:12:19 0° 53° (NE) 3,923 7.0 -37.1°
Reaches altitude 10° 03:14:49 10° 56° (NE) 2,962 6.2 -36.7°
Enters shadow 03:20:18 62° 85° (E) 1,230 3.6 -35.8°
